Location: Ailingen
(47.6833°N, 9.5000°E)
Time: 08:29:23
(UTC+00:00)

Sich 1 Rocket - Pass Details

Date: 18 November 2025
Orbit: 611 x 646 km, 82.5° (Epoch: 13 December)

Event Time Altitude Azimuth Distance (km) Brightness Sun altitude
Rises 18:05:58 0° 196° (SSW) 2,939 7.3 -24.0°
Reaches altitude 10° 18:08:13 10° 199° (SSW) 2,037 6.4 -24.4°
Maximum altitude 18:12:43 65° 281° (W) 716 4.0 -25.1°
Enters shadow 18:15:00 28° 355° (N) 1,207 5.0 -25.5°
